www.pogodaiklimat.ru

Погода и климат >> Архив погоды >> Россия >> Краснодарский край >> Тихорецк


ПОГОДА в Тихорецке

  • Прогноз погоды в Тихорецке
  • Монитор погоды в Тихорецке

АРХИВ ПОГОДЫ в Тихорецке

Время (UTC), дата Ветер
(напр.,м/с)
 
Видим.   Явления Облачность Т
(С)
Тd
(С)
f
(%)
Тe
(С)
Тes
(С)
Комфортность P
(гПа)
Po
(гПа)
Тmin
(С)
Tmax
(С)
R
(мм)
R24
(мм)
S
(см)
12 17.01 В 2 10 км ясно +3.4 -4.0 58 +1 +3 1018.9 1009.2
15 17.01 штиль 0 10 км ясно -0.3 -3.4 80 -1 -1 1020.8 1010.9 +3.6
18 17.01 ЮВ 1 10 км ясно -0.8 -4.2 78 -3 -3 1021.8 1011.9
21 17.01 ЮВ 2 10 км ясно -1.9 -5.1 79 -6 -6 1022.3 1012.4
00 18.01 ЮВ 2 10 км ясно -3.3 -5.5 85 -7 -7 1022.7 1012.7
03 18.01 ЮВ 2 10 км ясно -4.8 -6.7 87 -9 -9 1022.3 1012.2 -4.8
06 18.01 ЮВ 2 10 км ясно -3.3 -6.2 80 -7 -6 1023.0 1012.9 -5.0
09 18.01 Ю 3 10 км 8/8 1000 м
[Sc]
+3.7 -1.1 71 0 +1 1022.2 1012.4
12 18.01 Ю 4 10 км ясно +7.2 +0.7 63 +4 +5 1020.7 1011.1
15 18.01 ЮВ 2 10 км ясно +2.5 -1.9 73 -0 -0 1021.1 1011.3 +7.5
18 18.01 Ю 2 10 км ясно +2.0 -1.2 79 -1 -1 1020.9 1011.1
21 18.01 Ю 2 10 км ясно +2.5 -1.2 77 -1 -1 1020.9 1011.1
00 19.01 Ю 2 10 км 10/10 1000 м
[Sc]
+2.3 -1.7 75 -1 -1 1019.9 1010.2
03 19.01 Ю 2 10 км ясно +0.6 -3.9 72 -3 -3 1019.4 1009.5 -0.1
06 19.01 Ю 3 10 км 10/0
[Ac As]
+1.9 -3.3 68 -2 -2 1019.2 1009.4
09 19.01 Ю 3 10 км 10/0
[Ac As]
+4.1 -0.5 72 +1 +2 1019.2 1009.5
12 19.01 Ю 3 10 км 10/10 1000 м
[Sc]
+5.7 +1.0 72 +3 +3 1018.1 1008.4
15 19.01 Ю 1 10 км 10/8 1000 м
[Sc Ac und]
+5.1 +1.8 79 +4 +4 1018.5 1008.9 +6.3
18 19.01 ЮЗ 3 10 км 10/10 600 м
[Cb cap]
+6.6 +2.3 74 +4 +4 1018.9 1009.3
21 19.01 З 2 10 км 10/10 600 м
[Cb cap]
+4.6 +2.7 87 +2 +2 1020.6 1010.9
00 20.01 С 3 10 км {ливн. осадки} 10/10 600 м
[Cb cap]
+1.5 +0.7 94 -3 -3 1023.0 1013.1
03 20.01 С 2 10 км 10/10 1000 м
[Sc]
+1.1 -0.3 90 -2 -2 1024.6 1014.7 +1.1
06 20.01 СВ 2 10 км 10/10 1000 м
[Sc]
-0.1 -1.7 89 -4 -4 1025.9 1016.0 -0.1
09 20.01 СВ 2 10 км 10/10 600 м
[Sc]
+1.1 -1.2 85 -2 -2 1026.2 1016.3
12 20.01 В 2 10 км {ливн. осадки} 10/10 1000 м
[Cb cap]
+1.5 -1.4 81 -2 -2 1025.0 1015.2
15 20.01 В 2 10 км 10/10 600 м
[Sc diur, vesp]
+1.2 -1.2 84 -2 -2 1024.5 1014.6 +1.5 0.0
18 20.01 В 2 10 км 10/10 1000 м
[Sc diur, vesp]
+1.0 -0.7 88 -3 -3 1022.8 1013.7
21 20.01 В 2 10 км 10/10 1000 м
[Sc diur, vesp]
+0.5 -0.2 95 -3 -3 1028.8 1013.7
00 21.01 ЮВ 2 10 км 10/10 600 м
[Sc]
+1.4 0.0 90 -2 -2 1021.3 1011.5
03 21.01 ЮВ 2 10 км 10/10 1000 м
[Sc]
+1.0 +0.2 94 -3 -3 1019.8 1010.0 +0.6
06 21.01 ЮВ 3 10 км ясно +1.2 -0.7 87 -3 -3 1018.0 1008.2 +0.7
09 21.01 Ю 2 10 км 3/0
[Ci fib]
+7.9 +2.1 67 +6 +10 1016.4 1006.8
12 21.01 Ю 4 10 км 10/0
[Ac As]
+9.9 +1.9 57 +8 +8 1014.0 1004.5
15 21.01 Ю 2 10 км 10/0
[Ac As]
+8.4 +1.6 62 +7 +7 1012.8 1003.3 +10.0
18 21.01 ЮЗ 5
{10}
10 км слаб. дождь 10/0
[As op]
+7.4 +2.4 71 +4 +4 1013.0 1003.5
21 21.01 ЮЗ 3
{10}
10 км слаб. дождь 10/0
[As op]
+6.2 +4.5 89 +3 +3 1014.1 1004.5
00 22.01 С 4 10 км слаб. дождь 10/0
[As op]
+1.7 +0.5 92 -3 -3 1015.9 1006.2
03 22.01 С 3 10 км {дождь} 10/10 300 м
[St]
-0.7 -1.7 93 -6 -6 1018.0 1008.1 -0.7 3
06 22.01 С 4 10 км {морось} 10/10 1000 м
[St]
-2.3 -4.6 84 -8 -8 1020.2 1010.3 -2.4
09 22.01 С 3 10 км в посл. час снег 10/10 600 м
[St]
-2.9 -5.1 85 -8 -8 1022.3 1012.3
12 22.01 СВ 3 10 км {снег} 8/8 600 м
[St]
-2.8 -5.4 82 -8 -8 1022.5 1012.4
15 22.01 С 3 10 км 10/0
[]
-3.2 -5.6 83 -8 -8 1023.9 1013.9 -0.7 0.1
18 22.01 В 2 10 км 10/10 1000 м
[Sc]
-3.8 -6.5 81 -8 -8 1023.6 1013.6
21 22.01 В 2 10 км 10/0
[Ac As]
-4.1 -6.5 83 -8 -8 1024.1 1014.0
00 23.01 СВ 2 10 км 10/0
[Ac As]
-3.6 -5.7 85 -8 -8 1022.5 1012.5
03 23.01 В 3 10 км 10/0
[]
-3.6 -5.4 87 -9 -9 1021.5 1011.5 -4.2
06 23.01 В 3 10 км 10/10 1000 м
[Sc]
-2.3 -4.4 85 -7 -7 1020.9 1011.0
09 23.01 В 3 10 км 10/10 1000 м
[Sc]
-0.7 -3.0 84 -5 -5 1020.2 1010.3
12 23.01 В 3 10 км 6/0
[Ac trans Ci fib]
+4.1 -0.3 73 +1 +2 1017.6 1007.9
15 23.01 В 4 10 км 10/0
[Ac und]
+1.8 -1.0 82 -3 -3 1017.2 1007.4 +4.2
18 23.01 В 4 10 км ясно -0.6 -2.7 86 -6 -6 1016.1 1006.2
21 23.01 В 3 10 км ясно -1.7 -4.1 84 -7 -7 1016.0 1006.1
00 24.01 ЮВ 3 10 км 10/0
[Ci]
-1.5 -4.1 82 -6 -6 1016.0 1004.5
03 24.01 ЮВ 3 10 км 10/0
[Ac und]
-1.1 -3.8 82 -6 -6 1013.3 1003.5 -1.8
06 24.01 В 1 10 км 4/0
[Ac As Ci fib]
+0.4 -3.2 77 -1 -1 1013.9 1004.1
09 24.01 В 2 10 км 3/0
[Ci fib]
+6.7 -1.1 57 +5 +9 1012.6 1003.0

 

Местоположение метеостанции Тихорецк (Краснодарский край, Россия): широта 45.85 долгота 40.08 высота над уровнем моря 78 м.

В архиве по умолчанию представлена погода в Тихорецке за последнюю неделю. Архивные данные за месяц целиком и за предыдущие месяцы, начиная с января 2011 года, Вы можете получить, выбрав интересующий диапазон дат из раскрывающегося списка и нажав кнопку "Ввод!".


*Определитесь, кто Вы:
робот инопланетянин человек

Внимание! Время в таблицах - всемирное. Для получения местного времени необходимо прибавить поправку, которая равна 3 ч.

Смотрите также архив погоды в соседних городах и на ближайших метеорологических станциях:

Погода в Сосыке (Краснодарский край, Россия) (37 км)
Погода в Кропоткине (Краснодарский край, Россия) (60 км)
Погода в Кореновске (Краснодарский край, Россия) (63 км)
Погода в Белой Глине (Краснодарский край, Россия) (67 км)
Погода в Усть-Лабинске (Краснодарский край, Россия) (74 км)
Погода в Кущевской (Краснодарский край, Россия) (84 км)
Погода в Каневской (Краснодарский край, Россия) (89 км)
Погода в Тимашевске (Краснодарский край, Россия) (93 км)
Погода в Новоалександровске (Ставропольский край, Россия) (95 км)
Погода в Красногвардейском (Ставропольский край, Россия) (109 км)

Пояснения к столбцам:

Ветер - указаны скорость ветра в м/с - средняя за 10 мин, порывы в срок и между сроками (в фигурных скобках) и направление, откуда дует ветер: С - северный, СВ - северо-восточный, В - восточный, ЮВ - юго-восточный, Ю - южный, ЮЗ - юго-западный, З - западный, СЗ - северо-западный.
Видимость - горизонтальная дальность видимости в метрах или километрах. При видимости от 1 до 10 км при отсутствии осадков обычно наблюдается дымка, при ухудшении видимости до 1 км и менее - туман. В сухую погоду видимость может ухудшаться дымом, пылью или мглою.
Явления - указаны атмосферные явления, наблюдавшиеся в срок или в последний час перед сроком; фигурными скобками обозначены явления, наблюдавшиеся между сроками (за 1-3 часа до срока); квадратными скобками обозначены град или гололедные отложения с указанием их диаметра в мм.
Облачность - указаны через наклонную черту общая и нижняя облачность в баллах и высота нижней границы облаков в метрах; квадратными скобками обозначены формы облаков: Ci - перистые, Cs - перисто-слоистые, Cc - перисто-кучевые, Ac - высококучевые, As - высокослоистые, Sc - слоисто-кучевые, Ns - слоисто-дождевые, Cu - кучевые, Cb - кучево-дождевые. Подробнее классификацию облаков см. в Атласе облаков (PDF).
T - Температура воздуха - температура, измеренная на высоте 2 м над землей.
Td - Температура точки росы - температура, при понижении до которой содержащийся в воздухе водяной пар достигнет насыщения.
f - Относительная влажность воздуха - влажноcть воздуха, измеренная на высоте 2 м над землей.
Te - Эффективная температура - температура, которую ощущает одетый по сезону человек в тени. Характеристика душности погоды. При расчете учитывается влияние влажности воздуха и скорости ветра на теплоощущения человека.
Tes - Эффективная температура на солнце - температура, которую ощущает человек, с поправкой на солнечный нагрев. Характеристика знойности погоды. Зависит от высоты солнца над горизонтом, облачности и скорости ветра. Ночью, в пасмурную погоду, а также при ветре 12 м/с и более поправка равна нулю.
P - Атмосферное давление - приведенное к уровню моря атмосферное давление.
Po - Атмосферное давление - измеренное на уровне метеостанции атмосферное давление.
Tmin - Минимальная температура - минимум температуры воздуха на высоте 2 м над землей.
Tmax - Максимальная температура - максимум температуры воздуха на высоте 2 м над землей.
R - Количество осадков - Количество выпавших осадков за период времени, мм. При наведении курсора мыши на число - период времени, за который выпало указанное количество осадков.
R24 - Количество осадков - Количество выпавших осадков за 24 часа, мм.
S - Снежный покров - Высота снежного покрова, см. При наведении курсора мыши на число - состояние снежного покрова и степень покрытия местности в баллах.